Regional Weather Roundup
Issued by NWS

Home | Current Version | Previous Version | Text Only | Print | Product List | Glossary On
Versions: 1 2 3 4 5 6 7 8 9 10 11 12 13 14 15 16 17 18 19 20 21 22 23 24 25 26 27 28 29 30 31 32 33 34 35 36 37 38 39 40 41 42 43 44 45 46 47 48 49 50
000
ASUS43 KLMK 221710
RWRKY
KENTUCKY REGIONAL WEATHER ROUNDUP
NATIONAL WEATHER SERVICE LOUISVILLE KY
100 PM EDT SUN OCT 22 2017

NOTE "FAIR" INDICATES FEW OR NO CLOUDS BELOW 12,000 FEET
WITH NO SIGNIFICANT WEATHER AND/OR OBSTRUCTIONS TO VISIBILITY.

KYZ001>023-026-027-061>063-070>075-221800-
WESTERN AND SOUTH CENTRAL KENTUCKY

CITY           SKY/WX    TMP DP  RH WIND       PRES   REMARKS
PADUCAH        CLOUDY    75  60  59 S13G22    30.01S
HENDERSON      MOSUNNY   78  60  53 S15G28    30.05S
OWENSBORO      PTSUNNY   74  59  59 S18G30    30.08R
HOPKINSVILLE   MOSUNNY   75  58  56 S15G23    30.08R
BOWLING GREEN  MOSUNNY   77  59  53 S17       30.13F
GLASGOW        MOSUNNY   77  57  49 S15       30.15F
$$

KYZ024-025-028>034-038-045-046-053-221800-
NORTH CENTRAL KENTUCKY

CITY           SKY/WX    TMP DP  RH WIND       PRES   REMARKS
LOUISVILLE/SDF PTSUNNY   76  57  51 S13       30.13F
LOUISVILLE/LOU SUNNY     74  58  57 S12G23    30.14F
FORT KNOX      PTSUNNY   73  57  56 SE17G25   30.12F
$$

KYZ035>037-039>044-047>052-055>060-089>105-221800-
NORTHEAST KENTUCKY

CITY           SKY/WX    TMP DP  RH WIND       PRES   REMARKS
LEXINGTON      MOSUNNY   74  51  44 S17G29    30.20F
COVINGTON      CLOUDY    74  56  53 S17       30.17F
FRANKFORT      CLOUDY    73  52  47 S13       30.18F
$$

KYZ054-064>069-076>088-106>120-221800-
SOUTHEAST KENTUCKY

CITY           SKY/WX    TMP DP  RH WIND       PRES   REMARKS
JACKSON        CLOUDY    72  49  44 CALM      30.25F
LONDON         MOSUNNY   71  49  45 S9        30.23F
SOMERSET       MOSUNNY   70  52  52 SE5       30.21F
MIDDLESBORO    MOSUNNY   73  50  45 CALM      30.25F
MONTICELLO     MOSUNNY   74  57  55 E7G20     30.20F
$$




USA.gov is the U.S. government's official web portal to all federal, state and local government web resources and services.